THOR ABLESTAR DEB, 558

Orbit data source: Space-Track

THOR ABLESTAR DEB, 558 is space debris in LEO originally from a launch on Thu, 29 Jun 1961 UTC launched from the Air Force Eastern Test Range (AFETR). Debris objects in space refer to the collection of defunct objects orbiting the Earth. Examples of debris include non-operational satellites, rocket bodies, and fragments generated from explosions, collisions, or faulty payload assembly.

Loading next visibility...
Identifier
558, 1961-015GQ
Orbit
LEO
Country
Flag of USUS
Related business
Manufacturer
Unknown
Mission
Spacecraft
Bus & Motor
Unknown
Mass
Unknown
Launch date (UTC)
1961-06-29 (64 years ago)
Launch vehicle
Unknown
Launch site
Air Force Eastern Test Range (AFETR)
Object type
Payload
Rocket body
Debris
Shape & HBR
Unknown shape, 0.2 m
Radar Cross Section
Small (<0.1 m²)

Expand to show TLE details & history
Last TLE update: 16 hours ago

TLE from 16 hours ago
0 THOR ABLESTAR DEB
1 00558U 61015GQ  25306.22402347 -.00000053  00000-0  29107-4 0  9993
2 00558  65.6974 281.9977 0475464 191.2315 280.7640 12.86463142 20367
Epoch: 2025-11-02T05:22Z
TLE epoch observation values (Epoch: 2025-11-02T05:22:35.627Z)
Latitude
60.97369°
Longitude
-74.45893°
Altitude
1,273.762 km
Speed
7.249 km/s
True Right ascension
03h 11m 43s
True Declination
60° 50' 15"
Sunlit
Object was in full shadow at epoch
Visualization orbit readout
Latitude
Unknown
Longitude
Unknown
Altitude
Unknown
Speed
Unknown
Apparent Right ascension
Unknown
Apparent Declination
Unknown
Sunlit
N/A
Visualization observer readout
Local Sidereal Time
17:01:54
Azimuth
Unknown
Elevation
Unknown
Doppler factor
Unknown
Orbital elements
Apogee altitude
1,679.928 km
Perigee altitude
948.443 km
Semi-major axis
7,692.322 km
Eccentricity
0.04755
Inclination
65.6974°
RAAN
281.9977°
Arg. of periapsis
191.2315°
True anomaly
275.35943°
Mean anomaly
280.764°
Eccentric anomaly
278.06675°
Mean motion
3.21704 °/min
Orbital period
111.9 mins
BSTAR
0.000029107
Loading maneuver chart data...
Computing Atmospheric mass density...

Documentation

Showing up to 5 results
|